DateTimeUTC,F1_A11,F1_S11,BsB_S11,BsG_S11,BsR_S11,BbsB_S11,BbsG_S11,BbsR_S11,BaB_A11,BaG_A11,BaR_A11,Tu_S11,T_S11,Uu_S11,U_S11,P_S11,T1_A11
2021-04-24T18:00:00Z,00000200,21000000,,,,,,,0000.09,-000.50,-000.44,18.6,25.8,00.6,00.4,0678.4,31.1
2021-04-24T18:01:00Z,00000200,21000000,,,,,,,0000.02,0000.39,-000.02,18.6,25.8,00.6,00.4,0678.4,31.1
2021-04-24T18:02:00Z,00000200,21000000,,,,,,,-000.14,-000.28,0000.03,18.6,25.8,00.6,00.4,0678.4,31.1
2021-04-24T18:03:00Z,00000200,61000000,,,,,,,0001.02,0001.18,0000.37,18.6,25.9,00.6,00.4,0678.4,31.1
2021-04-24T18:04:00Z,00000200,41000000,0002.12,0001.40,0000.80,-000.08,0000.23,0000.43,0000.46,0000.37,0000.43,18.7,25.7,00.7,00.4,0679.4,31.2
2021-04-24T18:05:00Z,00000200,01000000,0002.38,0001.61,0000.93,0000.91,0000.04,0000.36,0000.93,0000.94,0000.96,18.8,25.6,00.7,00.5,0679.5,31.1
2021-04-24T18:06:00Z,00000200,01000000,0002.16,0001.50,0001.03,0000.66,0000.26,0000.44,0000.95,0000.41,0000.48,18.7,25.6,00.7,00.4,0679.5,31.2
2021-04-24T18:07:00Z,00000200,01000000,0002.06,0001.37,0001.21,0000.59,0000.36,0000.33,0000.76,0001.14,0000.68,18.7,25.6,00.7,00.4,0679.5,31.1
2021-04-24T18:08:00Z,00000200,01000000,0001.70,0001.95,0000.83,0000.75,0000.18,0000.22,0000.75,0000.52,0000.55,18.7,25.6,00.8,00.5,0679.5,31.1
2021-04-24T18:09:00Z,00000200,01000000,0001.54,0001.75,0001.09,0000.77,0000.31,0000.27,0001.00,0000.73,0000.79,18.7,25.6,00.8,00.5,0679.5,31.1
2021-04-24T18:10:00Z,00000200,01000000,0002.15,0001.52,0001.19,0000.69,0000.36,0000.10,0000.77,0000.79,0000.17,18.7,25.6,00.8,00.5,0679.5,31.1
2021-04-24T18:11:00Z,00000200,01000000,0002.14,0001.54,0001.13,0001.17,0000.43,0000.29,0000.78,0000.95,0000.58,18.8,25.5,00.7,00.5,0679.5,31.1
2021-04-24T18:12:00Z,00000200,01000000,0001.81,0001.56,0000.91,0000.69,0000.19,0000.22,0000.86,0000.16,0000.41,18.7,25.6,00.8,00.5,0679.5,31.1
2021-04-24T18:13:00Z,00000200,01000000,0002.22,0001.66,0000.94,0000.73,0000.41,0000.42,0000.52,0000.80,0000.41,18.7,25.5,00.7,00.4,0679.5,31.1
2021-04-24T18:14:00Z,00000200,01000000,0002.34,0001.83,0001.07,0000.39,0000.46,0000.34,0000.95,0000.74,0000.97,18.7,25.6,00.8,00.5,0679.5,31.1
2021-04-24T18:15:00Z,00000200,01000000,0002.48,0001.58,0000.77,0000.10,0000.28,0000.29,0001.15,0001.18,0000.47,18.8,25.5,00.7,00.5,0679.5,31.1
2021-04-24T18:16:00Z,00000200,01000000,0002.57,0001.88,0001.03,0000.33,0000.24,0000.11,0000.65,0000.48,0000.55,18.7,25.5,00.7,00.4,0679.5,31.1
2021-04-24T18:17:00Z,00000200,01000000,0002.48,0001.67,0001.12,-000.02,0000.17,0000.10,0001.13,0001.05,0000.64,18.7,25.5,00.8,00.5,0679.5,31.1
2021-04-24T18:18:00Z,00000200,01000000,0002.31,0001.52,0000.99,0000.58,0000.24,0000.02,0000.45,0000.26,0000.39,18.7,25.5,00.7,00.5,0679.5,31.2
2021-04-24T18:19:00Z,00000200,01000000,0002.16,0001.45,0000.90,0001.08,0000.30,0000.10,0001.21,0001.23,0000.92,18.7,25.5,00.7,00.5,0679.5,31.1
2021-04-24T18:20:00Z,00000200,01000000,0001.85,0001.86,0000.91,0000.81,0000.31,0000.41,0000.61,0000.60,0000.41,18.7,25.5,00.6,00.4,0679.5,31.1
2021-04-24T18:21:00Z,00000200,01000000,0002.80,0001.72,0001.14,0001.00,0000.40,0000.32,0000.73,0000.76,0000.42,18.7,25.5,00.6,00.4,0679.6,31.1
2021-04-24T18:22:00Z,00000200,01000000,0002.10,0001.65,0000.98,0000.53,0000.28,0000.04,0000.92,0000.53,0000.62,18.7,25.5,00.6,00.4,0679.6,31.1
2021-04-24T18:23:00Z,00000200,01000000,0001.75,0001.74,0001.01,0000.15,0000.19,0000.31,0000.39,0000.52,0000.56,18.7,25.5,00.5,00.3,0679.6,31.1
2021-04-24T18:24:00Z,00000200,01000000,0002.21,0001.75,0000.77,0000.49,0000.26,0000.28,0000.87,0000.59,0000.33,18.7,25.5,00.5,00.3,0679.6,31.1
2021-04-24T18:25:00Z,00000200,01000000,0002.25,0001.79,0001.24,0000.49,0000.06,0000.23,0000.78,0000.71,0000.47,18.7,25.5,00.5,00.3,0679.6,31.1
2021-04-24T18:26:00Z,00000200,01000000,0001.54,0001.62,0001.29,0000.61,0000.18,0000.31,0000.99,0000.80,0000.91,18.7,25.5,00.4,00.3,0679.6,31.1
2021-04-24T18:27:00Z,00000200,01000000,0002.24,0001.73,0001.03,0000.63,0000.35,0000.16,0000.33,0000.70,0000.38,18.7,25.5,00.4,00.3,0679.6,31.1
2021-04-24T18:28:00Z,00000200,01000000,0002.45,0001.50,0001.12,0000.41,0000.27,0000.39,0001.32,0001.00,0000.68,18.7,25.5,00.4,00.3,0679.6,31.1
2021-04-24T18:29:00Z,00000200,01000000,0002.45,0001.54,0001.40,0000.90,0000.43,0000.52,0000.52,0000.55,0000.48,18.7,25.5,00.5,00.3,0679.6,31.1
2021-04-24T18:30:00Z,00000200,01000000,0002.30,0001.63,0001.21,0000.60,0000.01,0000.57,0001.00,0001.00,0000.59,18.7,25.5,00.5,00.3,0679.6,31.1
2021-04-24T18:31:00Z,00000200,01000000,0002.62,0001.76,0001.25,0000.81,0000.22,0000.39,0000.83,0000.62,0000.45,18.7,25.5,00.4,00.3,0679.6,31.1
2021-04-24T18:32:00Z,00000200,01000000,0002.80,0001.74,0001.08,0000.43,0000.36,0000.59,0000.73,0000.75,0000.73,18.7,25.5,00.4,00.3,0679.6,31.1
2021-04-24T18:33:00Z,00000200,01000000,0002.55,0001.53,0001.07,0000.68,0000.24,0000.25,0000.93,0000.75,0000.34,18.7,25.5,00.4,00.3,0679.6,31.1
2021-04-24T18:34:00Z,00000200,01000000,0002.84,0001.64,0001.05,0001.20,0000.13,0000.48,0000.95,0000.64,0000.72,18.7,25.5,00.4,00.2,0679.6,31.1
2021-04-24T18:35:00Z,00000200,01000000,0002.83,0001.60,0000.94,0000.13,0000.20,0000.40,0000.52,0000.68,0000.56,18.7,25.5,00.4,00.3,0679.6,31.1
2021-04-24T18:36:00Z,00000200,01000000,0002.29,0001.73,0000.94,0000.52,0000.08,0000.45,0000.96,0000.70,0000.39,18.7,25.5,00.3,00.2,0679.6,31.1
2021-04-24T18:37:00Z,00000200,01000000,0002.25,0001.28,0000.63,0000.87,0000.11,0000.46,0000.54,0000.59,0000.73,18.7,25.5,00.4,00.3,0679.6,31.1
2021-04-24T18:38:00Z,00000200,01000000,0002.35,0001.74,0001.29,0000.57,0000.63,0000.36,0000.91,0000.75,0000.24,18.7,25.4,00.4,00.3,0679.6,31.1
2021-04-24T18:39:00Z,00000200,01000000,0002.46,0001.50,0000.71,0000.27,0000.19,0000.19,0000.66,0000.92,0000.52,18.7,25.4,00.3,00.2,0679.6,31.1
2021-04-24T18:40:00Z,00000200,01000000,0002.32,0001.61,0000.98,0000.98,0000.11,0000.21,0001.24,0000.85,0001.16,18.7,25.4,00.4,00.2,0679.6,31.1
2021-04-24T18:41:00Z,00000200,01000000,0002.31,0001.74,0000.51,0000.38,-000.06,0000.06,0000.39,0000.43,-000.05,18.6,25.4,00.3,00.2,0679.6,31.1
2021-04-24T18:42:00Z,00000200,01000000,0002.62,0001.68,0001.14,0000.71,0000.23,0000.47,0000.83,0001.16,0000.65,18.7,25.4,00.3,00.2,0679.6,31.1
2021-04-24T18:43:00Z,00000200,01000000,0002.25,0001.99,0001.27,0000.90,0000.25,0000.13,0001.26,0000.69,0000.93,18.7,25.4,00.3,00.2,0679.6,31.1
2021-04-24T18:44:00Z,00000200,01000000,0001.99,0001.66,0000.86,0000.26,0000.37,0000.33,0000.75,0000.96,0000.31,18.7,25.4,00.4,00.3,0679.6,31.1
2021-04-24T18:45:00Z,00000200,01000000,0003.19,0001.77,0001.08,0000.82,0000.36,0000.35,0001.09,0000.38,0000.63,18.7,25.4,00.3,00.2,0679.7,31.1
2021-04-24T18:46:00Z,00000200,01000000,0002.07,0001.58,0001.05,0000.44,0000.19,0000.34,0000.51,0000.72,0000.85,18.6,25.4,00.3,00.2,0679.6,31.1
2021-04-24T18:47:00Z,00000200,01000000,0002.36,0001.87,0001.29,0000.94,0000.38,0000.23,0000.63,0000.54,0000.32,18.6,25.4,00.2,00.1,0679.6,31.1
2021-04-24T18:48:00Z,00000200,01000000,0002.69,0001.50,0001.35,0000.43,0000.34,0000.54,0001.11,0000.83,0000.26,18.6,25.4,00.3,00.2,0679.6,31.1
2021-04-24T18:49:00Z,00000200,01000000,0002.48,0001.92,0000.91,0000.81,0000.10,0000.38,0000.85,0000.87,0000.61,18.6,25.4,00.2,00.1,0679.6,31.1
2021-04-24T18:50:00Z,00000200,01000000,0002.34,0001.93,0001.09,0000.20,0000.37,0000.25,0000.42,0000.71,0000.54,18.6,25.4,00.2,00.1,0679.6,31.1
2021-04-24T18:51:00Z,00000200,01000000,0002.32,0001.84,0001.29,0000.62,0000.28,0000.41,0001.00,0000.79,0000.60,18.6,25.4,00.1,00.1,0679.6,31.1
2021-04-24T18:52:00Z,00000200,01000000,0002.66,0001.68,0001.24,0000.64,0000.32,0000.40,0001.03,0000.78,0000.83,18.6,25.4,00.2,00.1,0679.6,31.1
2021-04-24T18:53:00Z,00000200,01000000,0003.15,0001.82,0000.81,0000.31,0000.27,0000.18,0000.82,0000.76,0000.57,18.6,25.4,00.2,00.1,0679.6,31.1
2021-04-24T18:54:00Z,00000200,01000000,0002.45,0001.81,0000.93,0000.54,0000.25,0000.12,0000.92,0000.91,0000.49,18.6,25.4,00.2,00.1,0679.6,31.1
2021-04-24T18:55:00Z,00000200,01000000,0002.39,0001.67,0000.96,0000.27,0000.35,0000.46,0000.57,0000.52,0000.46,18.6,25.4,00.2,00.1,0679.6,31.1
2021-04-24T18:56:00Z,00000200,01000000,0003.05,0001.70,0001.30,0000.97,0000.33,0000.62,0000.97,0000.84,0000.43,18.6,25.4,00.2,00.1,0679.7,31.1
2021-04-24T18:57:00Z,00000200,41000000,,,,,,,0000.91,0000.86,0000.75,18.6,25.5,,00.0,0679.6,31.1
2021-04-24T18:58:00Z,00000200,61000000,,,,,,,-000.39,-000.17,-000.23,18.4,25.6,,00.0,0678.6,31.1
2021-04-24T18:59:00Z,00000200,21000000,,,,,,,-000.06,-000.19,-000.21,18.4,25.7,,00.0,0678.6,31.1
